Home   Weather   Christchurch   Past weeks
Flag for New Zealand

Past Weather in Christchurch, New Zealand — Yesterday and Last 2 Weeks

Now
52 °F

Cool.


Feels Like: 52 °F
Forecast: 57 / 39 °F
Wind: 1 mph from North

Location: Christchurch Airport

Current Time: May 20, 2019 at 11:16:06 am

Latest Report: May 20, 2019 at 10:30 am


Visibility: N/A

Pressure: 30.04 "Hg

Humidity: 72%

Dew Point: 43 °F

Location of ChristchurchLocation

Past Weather in Christchurch — Graph

°F

Christchurch Temperature Yesterday

Maximum temperature yesterday: 59 °F (at 12:00 am)
Minimum temperature yesterday: 37 °F (at 11:30 pm)
Average temperature yesterday: 49 °F

High & Low Weather Summary for the Past Weeks

 TemperatureHumidityPressure
High70 °F (May 9, 11:30 am)100% (May 5, 10:30 pm)30.45 "Hg (May 5, 10:30 pm)
Low28 °F (May 18, 5:00 am)37% (May 16, 12:00 pm)29.27 "Hg (May 12, 8:30 pm)
Average51 °F82%29.96 "Hg
* Reported May 5 10:00 am — May 20 10:00 am, Christchurch. Weather by CustomWeather, © 2019

Note: Actual official high and low records may vary slightly from our data, if they occured in-between our weather recording intervals... More about our weather records

Advertising

Christchurch Weather History for the Previous 24 Hours

Scroll right to see more
 ConditionsComfort  
Time TempWeatherWind HumidityBarometerVisibility
10:00 am
Mon, May 20
46 °FCool.1 mph87%30.04 "HgN/A
9:30 am43 °FQuite cool.1 mph93%30.04 "HgN/A
9:00 am36 °FChilly.2 mph100%30.01 "HgN/A
8:30 am34 °FChilly.5 mph93%30.01 "HgN/A
8:00 am30 °FChilly.3 mph100%29.98 "HgN/A
7:30 am30 °FChilly.3 mph100%29.98 "HgN/A
7:00 am32 °FChilly.3 mph100%29.95 "HgN/A
6:30 am32 °FChilly.2 mph100%29.95 "HgN/A
6:00 am32 °FChilly.1 mph93%29.92 "HgN/A
5:30 am32 °FChilly.1 mph100%29.92 "HgN/A
5:00 am34 °FChilly.1 mph100%29.89 "HgN/A
4:30 am36 °FChilly.2 mph93%29.89 "HgN/A
4:00 am30 °FChilly.1 mph93%29.89 "HgN/A
3:30 am34 °FChilly.3 mph93%29.89 "HgN/A
3:00 am34 °FChilly.2 mph93%29.89 "HgN/A
2:30 am34 °FChilly.3 mph100%29.89 "HgN/A
2:00 am34 °FChilly.3 mph100%29.89 "HgN/A
1:30 am36 °FChilly.2 mph93%29.89 "HgN/A
1:00 am37 °FChilly.2 mph87%29.86 "HgN/A
12:30 am36 °FChilly.3 mph100%29.86 "HgN/A
12:00 am37 °FChilly.1 mph93%29.86 "HgN/A
11:30 pm
Sun, May 19
37 °FChilly.2 mph100%29.86 "HgN/A
11:00 pm41 °FQuite cool.3 mph93%29.86 "HgN/A
10:30 pm45 °FQuite cool.5 mph81%29.86 "HgN/A
10:00 pm43 °FQuite cool.6 mph87%29.86 "HgN/A
9:30 pm41 °FQuite cool.2 mph93%29.89 "HgN/A
9:00 pm41 °FQuite cool.5 mph93%29.86 "HgN/A
8:30 pm41 °FQuite cool.1 mph93%29.89 "HgN/A
8:00 pm41 °FQuite cool.3 mph93%29.89 "HgN/A
7:30 pm45 °FQuite cool.3 mph87%29.89 "HgN/A
7:00 pm45 °FPassing clouds.3 mph87%29.89 "HgN/A
6:30 pm48 °FOvercast.1 mph76%29.89 "HgN/A
6:00 pm46 °FPassing clouds.3 mph82%29.89 "HgN/A
5:30 pm50 °FOvercast.No wind71%29.89 "HgN/A
5:00 pm50 °FOvercast.5 mph76%29.89 "HgN/A
4:30 pm52 °FOvercast.7 mph72%29.89 "HgN/A
4:00 pm52 °FPartly sunny.6 mph67%29.89 "HgN/A
3:30 pm54 °FPartly sunny.8 mph63%29.89 "HgN/A
3:00 pm54 °FOvercast.9 mph67%29.89 "HgN/A
2:30 pm54 °FOvercast.12 mph63%29.89 "HgN/A
2:00 pm54 °FPartly sunny.14 mph63%29.89 "HgN/A
1:30 pm54 °FScattered clouds.14 mph63%29.89 "HgN/A
1:00 pm54 °FOvercast.16 mph63%29.89 "HgN/A
12:30 pm54 °FOvercast.16 mph63%29.89 "HgN/A
12:00 pm54 °FMore clouds than sun.17 mph63%29.89 "HgN/A
11:30 am54 °FMostly cloudy.17 mph67%29.89 "HgN/A
11:00 am54 °FPartly sunny.16 mph67%29.89 "HgN/A
Weather by CustomWeather, © 2019

See weather overview